カタログに戻る

SL-14 DEB

運用中PO
NORAD 45290·DEBRIS·🇷🇺 Russia

打ち上げ Aug 15, 1991 から Plesetsk Cosmodrome

Loading…

次のパス (今後24時間)

TLE

最新Source: Space-Track

元期: Sep 14, 2026, 08:52 UTC

1 45290U 91056AC  26257.36947277  .00000142  00000-0  21764-3 0  9998
2 45290  82.6356  36.2736 0098594  40.8015 320.0451 13.43205322320399

AllMySatでSL-14 DEBをリアルタイム追跡

Download on the App Store